Tracking 30415 objects as of 14-May-2025
HD Live streaming from Space Station
objects crossing your sky now

THORAD AGENA D DEB

Track THORAD AGENA D DEB now!
10-day predictions


NORAD ID: 6766
Int'l Code: 1970-025NH
Perigee: 816.8 km
Apogee: 932.0 km
Inclination: 100.2 °
Period: 102.3 minutes
Semi major axis: 7245 km
RCS: 0.0383 m2 (small)
Launch date: April 8, 1970
Source: United States (US)
Launch site: AIR FORCE WESTERN TEST RANGE (AFWTR)

Note: This is SATELLITE DEBRIS
Your satellite tracking list
Your tracking list is empty




NASA's NSSDC Master Catalog

Two Line Element Set (TLE):
1  6766U 70025NH  25134.51181644  .00001681  00000-0  99638-3 0  9998
2  6766 100.1800 125.1312 0079526  84.8897 276.1339 14.07705372779634
Source of the keplerian elements: AFSPC